EA3CTN-13 Weather Reports


Display with metric or nautical units.
time (UTC)temp
F
wind
direction
speed
MPH
gust
MPH
rain 1hr
in
rain 24hr
in
rain mn
in
humidity
%
barometer
mb
20260508113322 71 0.0 0.0 0.00 0.00 0.00 43 1015.0
20260508112522 70 0.0 0.0 0.00 0.00 0.00 46 1015.1
20260508111722 70 0.0 0.0 0.00 0.00 0.00 45 1015.0
20260508110922 70 0.0 0.0 0.00 0.00 0.00 46 1015.0
20260508110122 70 0.0 0.0 0.00 0.00 0.00 51 1015.1
20260508105322 70 0.0 0.0 0.00 0.00 0.00 52 1015.0
20260508104522 70 0.0 0.0 0.00 0.00 0.00 52 1015.0
20260508103722 70 0.0 0.0 0.00 0.00 0.00 51 1015.0
20260508102923 70 0.0 0.0 0.00 0.00 0.00 51 1015.1
20260508102124 70 0.0 0.0 0.00 0.00 0.00 51 1015.2
20260508101322 70 0.0 0.0 0.00 0.00 0.00 51 1015.2
20260508100522 70 0.0 0.0 0.00 0.00 0.00 52 1015.5
20260508095722 70 0.0 0.0 0.00 0.00 0.00 50 1015.4
20260508094922 69 0.0 0.0 0.00 0.00 0.00 51 1015.2
20260508094122 70 0.0 0.0 0.00 0.00 0.00 52 1015.2
20260508093322 69 0.0 0.0 0.00 0.00 0.00 54 1015.3
20260508092522 69 0.0 0.0 0.00 0.00 0.00 53 1015.2
20260508091722 69 0.0 0.0 0.00 0.00 0.00 53 1015.3
20260508090922 69 0.0 0.0 0.00 0.00 0.00 52 1015.1
20260508090122 69 0.0 0.0 0.00 0.00 0.00 52 1015.1
20260508085322 69 0.0 0.0 0.00 0.00 0.00 54 1015.0
20260508084522 68 0.0 0.0 0.00 0.00 0.00 56 1014.9
20260508083722 68 0.0 0.0 0.00 0.00 0.00 56 1014.9
20260508082922 68 0.0 0.0 0.00 0.00 0.00 55 1014.9
20260508082122 68 0.0 0.0 0.00 0.00 0.00 55 1014.6
20260508081322 68 0.0 0.0 0.00 0.00 0.00 56 1014.5
20260508080522 68 0.0 0.0 0.00 0.00 0.00 54 1014.5
20260508075722 67 0.0 0.0 0.00 0.00 0.00 52 1014.4
20260508074922 67 0.0 0.0 0.00 0.00 0.00 53 1014.3
20260508074122 67 0.0 0.0 0.00 0.00 0.00 52 1014.2
20260508073322 67 0.0 0.0 0.00 0.00 0.00 52 1014.2
20260508072522 67 0.0 0.0 0.00 0.00 0.00 51 1014.2
20260508071722 67 0.0 0.0 0.00 0.00 0.00 51 1014.0
20260508070922 66 0.0 0.0 0.00 0.00 0.00 52 1013.9
20260508070122 66 0.0 0.0 0.00 0.00 0.00 52 1013.8
20260507220522 67 0.0 0.0 0.00 0.00 0.00 58 1014.7
20260507215722 67 0.0 0.0 0.00 0.00 0.00 58 1014.8
20260507214922 67 0.0 0.0 0.00 0.00 0.00 57 1014.7
20260507214122 67 0.0 0.0 0.00 0.00 0.00 57 1014.8
20260507213322 67 0.0 0.0 0.00 0.00 0.00 57 1014.8
20260507212522 67 0.0 0.0 0.00 0.00 0.00 57 1014.8
20260507211722 67 0.0 0.0 0.00 0.00 0.00 57 1014.7
20260507210922 67 0.0 0.0 0.00 0.00 0.00 56 1014.7
20260507210122 67 0.0 0.0 0.00 0.00 0.00 56 1014.8
20260507205322 67 0.0 0.0 0.00 0.00 0.00 57 1014.8
20260507204522 67 0.0 0.0 0.00 0.00 0.00 56 1014.8
20260507203722 68 0.0 0.0 0.00 0.00 0.00 56 1014.7
20260507202922 68 0.0 0.0 0.00 0.00 0.00 56 1014.7
20260507202122 68 0.0 0.0 0.00 0.00 0.00 56 1014.5
20260507201322 68 0.0 0.0 0.00 0.00 0.00 56 1014.4
20260507200522 68 0.0 0.0 0.00 0.00 0.00 57 1014.3
20260507195722 68 0.0 0.0 0.00 0.00 0.00 55 1014.3
20260507194922 68 0.0 0.0 0.00 0.00 0.00 55 1014.1
20260507194122 68 0.0 0.0 0.00 0.00 0.00 54 1014.0
20260507193322 68 0.0 0.0 0.00 0.00 0.00 55 1013.9
20260507192522 68 0.0 0.0 0.00 0.00 0.00 54 1013.8
20260507191722 68 0.0 0.0 0.00 0.00 0.00 53 1013.8
20260507190922 68 0.0 0.0 0.00 0.00 0.00 53 1013.7
20260507190122 69 0.0 0.0 0.00 0.00 0.00 53 1013.4
20260507185322 69 0.0 0.0 0.00 0.00 0.00 53 1013.4
20260507184522 69 0.0 0.0 0.00 0.00 0.00 53 1013.4
20260507183722 69 0.0 0.0 0.00 0.00 0.00 52 1013.3
20260507182922 70 0.0 0.0 0.00 0.00 0.00 52 1013.2
20260507182122 70 0.0 0.0 0.00 0.00 0.00 52 1013.2
20260507181322 70 0.0 0.0 0.00 0.00 0.00 52 1013.0
20260507180522 70 0.0 0.0 0.00 0.00 0.00 49 1013.0
20260507175722 71 0.0 0.0 0.00 0.00 0.00 49 1013.0
20260507174922 71 0.0 0.0 0.00 0.00 0.00 48 1012.8
20260507174122 71 0.0 0.0 0.00 0.00 0.00 49 1013.0
20260507173322 71 0.0 0.0 0.00 0.00 0.00 49 1013.0
20260507172522 71 0.0 0.0 0.00 0.00 0.00 48 1013.0
20260507171722 72 0.0 0.0 0.00 0.00 0.00 47 1012.9
20260507170922 72 0.0 0.0 0.00 0.00 0.00 47 1012.8
20260507170122 73 0.0 0.0 0.00 0.00 0.00 46 1012.7
20260507165322 74 0.0 0.0 0.00 0.00 0.00 44 1012.6
20260507164522 75 0.0 0.0 0.00 0.00 0.00 42 1012.6
20260507163722 79 0.0 0.0 0.00 0.00 0.00 39 1012.4
20260507162922 76 0.0 0.0 0.00 0.00 0.00 41 1012.3
20260507162122 74 0.0 0.0 0.00 0.00 0.00 44 1012.5
20260507161322 74 0.0 0.0 0.00 0.00 0.00 43 1012.4
20260507160522 73 0.0 0.0 0.00 0.00 0.00 45 1012.5
20260507155721 74 0.0 0.0 0.00 0.00 0.00 43 1012.5
20260507154922 73 0.0 0.0 0.00 0.00 0.00 45 1012.5
20260507154122 72 0.0 0.0 0.00 0.00 0.00 46 1012.8
20260507153321 71 0.0 0.0 0.00 0.00 0.00 48 1013.0
20260507152521 71 0.0 0.0 0.00 0.00 0.00 47 1013.1
20260507151721 72 0.0 0.0 0.00 0.00 0.00 46 1013.1
20260507150921 72 0.0 0.0 0.00 0.00 0.00 45 1013.1
20260507150122 72 0.0 0.0 0.00 0.00 0.00 45 1012.9
20260507145321 72 0.0 0.0 0.00 0.00 0.00 45 1013.1
20260507144521 72 0.0 0.0 0.00 0.00 0.00 45 1013.1
20260507143721 71 0.0 0.0 0.00 0.00 0.00 45 1013.1
20260507142922 71 0.0 0.0 0.00 0.00 0.00 45 1013.1
20260507142121 70 0.0 0.0 0.00 0.00 0.00 46 1013.0
20260507141322 70 0.0 0.0 0.00 0.00 0.00 45 1013.2
20260507140521 70 0.0 0.0 0.00 0.00 0.00 46 1013.4
20260507135722 69 0.0 0.0 0.00 0.00 0.00 47 1013.3
20260507134921 70 0.0 0.0 0.00 0.00 0.00 47 1013.4
20260507134121 69 0.0 0.0 0.00 0.00 0.00 47 1013.7
20260507133321 70 0.0 0.0 0.00 0.00 0.00 45 1013.8
20260507132521 69 0.0 0.0 0.00 0.00 0.00 46 1013.8
20260507131721 70 0.0 0.0 0.00 0.00 0.00 46 1013.9
20260507130921 69 0.0 0.0 0.00 0.00 0.00 47 1013.9
20260507130121 70 0.0 0.0 0.00 0.00 0.00 46 1014.0
20260507125321 70 0.0 0.0 0.00 0.00 0.00 47 1014.1
20260507124521 70 0.0 0.0 0.00 0.00 0.00 47 1014.2
20260507123722 70 0.0 0.0 0.00 0.00 0.00 48 1014.3
20260507122921 70 0.0 0.0 0.00 0.00 0.00 48 1014.3
20260507122121 70 0.0 0.0 0.00 0.00 0.00 48 1014.4
20260507121321 70 0.0 0.0 0.00 0.00 0.00 49 1014.4
20260507120521 70 0.0 0.0 0.00 0.00 0.00 48 1014.6
20260507115721 70 0.0 0.0 0.00 0.00 0.00 48 1014.5
20260507114922 70 0.0 0.0 0.00 0.00 0.00 48 1014.7
20260507114121 70 0.0 0.0 0.00 0.00 0.00 48 1014.6